sat.trackr.live / text

‹ back to catalog

STARLINK-38067

NORAD 69747 · 2026-150J

PAYLOAD ACTIVE UNKNOWN

§ Identity

Operator
Country
US
Launch date
2026-07-02
Launch site
AFWTR
Launch vehicle
Mass (kg)
RCS (m²)

Purposes: comms

External: N2YO · Heavens-Above · Gunter

§ Orbital elements

Epoch: 2026-09-19T20:07:13.947168Z

Period
93.90 min
Inclination
97.2849°
Eccentricity
0.0001315
Mean motion
15.33470571 rev/d
Perigee alt
464.6 km
Apogee alt
466.4 km
Semi-major
6,843.6 km
B*
4.0098e-4
RAAN
101.7589°
Arg perigee
93.1270°
Mean anomaly
267.0123°
Rev number
1,363

§ Raw data

STARLINK-380671 69747U 26150J   26262.83835587  .00012903  00000+0  40098-3 0  99902 69747  97.2849 101.7589 0001315  93.1270 267.0123 15.33470571 13637

JSON: /api/v1/satellites/69747 · /tle

For live sub-satellite position, see the globe view (requires WebGL).

§ Visibility from observer

Set your observer location to see the next 7 days of passes ≥ 10°. The values pass through the URL so the page stays shareable.

No JS? Fill the form by hand. The geolocation button needs JavaScript.